Hollywood, FL

5:38 AM EDT on October 15, 2019 (GMT -0400)
North Perry

Weather History for KHWO - August, 2019

Change the Weather History Date:

Thursday, August 29, 2019

  Actual Average (WUND) Record (WUND)
Temperature  
Mean Temperature 82 °F -  
Max Temperature 91 °F - - (-1)
Min Temperature 75 °F - - (-1)
Cooling Degree Days 18    
Growing Degree Days 32 (Base 50)    
Moisture  
Dew Point 75 °F    
Average Humidity 78    
Maximum Humidity 94    
Minimum Humidity 61    
Precipitation  
Precipitation 2.23 in - - ()
Sea Level Pressure  
Sea Level Pressure 29.92 in    
Wind  
Wind Speed 5 mph (SE)    
Max Wind Speed 17 mph    
Max Gust Speed 23 mph    
Visibility 8 miles    
Events Rain , Thunderstorm    
Averages and records for this station are not official NWS values.
T = Trace of Precipitation, MM = Missing Value Source: NWS Daily Summary

Daily Weather History Graph

Daily Weather History Graph

Search for Another Location

Airport or City:

Astronomy

Aug. 29, 2019 Rise Set
Actual Time 6:59 AM EDT 7:43 PM EDT
Civil Twilight 6:36 AM EDT 8:07 PM EDT
Nautical Twilight 6:08 AM EDT 8:34 PM EDT
Astronomical Twilight 5:40 AM EDT 9:02 PM EDT
Moon 5:55 AM EDT (8/29) 7:30 PM EDT (8/29)
Length of Visible Light 13h 30m
Length of Day
12h 43m
Waning Crescent, 1% of the Moon is Illuminated
Aug 29
Waning Crescent
Aug 30
New
Sep 5
First Quarter
Sep 14
Full
Sep 21
Last Quarter

Hourly Weather History & Observations

Time (EDT) Temp. Heat Index Dew Point Humidity Pressure Visibility Wind Dir Wind Speed Gust Speed Precip Events Conditions
12:53 AM 84.0 °F 92.6 °F 75.9 °F 76% 29.93 in 10.0 mi Calm Calm - N/A   Clear
1:45 AM 84.0 °F 92.6 °F 75.9 °F 76% 29.91 in 10.0 mi South 3.5 mph - N/A Thunderstorm Scattered Clouds
1:53 AM 84.0 °F 92.6 °F 75.9 °F 76% 29.91 in 10.0 mi SSW 6.9 mph - N/A Thunderstorm Partly Cloudy
2:00 AM 82.9 °F 90.2 °F 75.0 °F 77% 29.92 in 10.0 mi SW 3.5 mph - N/A   Partly Cloudy
2:53 AM 82.9 °F 90.8 °F 75.9 °F 79% 29.89 in 10.0 mi WNW 8.1 mph - N/A   Mostly Cloudy
3:53 AM 80.1 °F 85.4 °F 75.9 °F 87% 29.88 in 10.0 mi Calm Calm - 0.00 in   Mostly Cloudy
4:53 AM 80.1 °F 85.1 °F 75.0 °F 85% 29.88 in 10.0 mi NE 3.5 mph - N/A   Clear
5:53 AM 81.0 °F 86.7 °F 75.0 °F 82% 29.88 in 10.0 mi Calm Calm - N/A   Clear
6:53 AM 81.0 °F 86.7 °F 75.0 °F 82% 29.89 in 10.0 mi Calm Calm - N/A   Partly Cloudy
7:53 AM 82.9 °F 90.2 °F 75.0 °F 77% 29.90 in 10.0 mi Calm Calm - N/A   Mostly Cloudy
8:53 AM 84.9 °F 95.3 °F 77.0 °F 77% 29.92 in 10.0 mi WNW 4.6 mph - N/A   Scattered Clouds
9:53 AM 86.0 °F 96.9 °F 77.0 °F 74% 29.94 in 10.0 mi NW 5.8 mph - N/A   Mostly Cloudy
10:53 AM 89.1 °F 101.4 °F 77.0 °F 67% 29.94 in 10.0 mi NW 6.9 mph - N/A Thunderstorm Scattered Clouds
11:33 AM 90.0 °F 102.5 °F 77.0 °F 65% 29.93 in 10.0 mi Variable 3.5 mph - N/A   Partly Cloudy
11:53 AM 90.0 °F 100.2 °F 75.0 °F 61% 29.93 in 10.0 mi Variable 3.5 mph - N/A   Scattered Clouds
12:05 PM 89.1 °F 100.2 °F 75.9 °F 65% 29.92 in 10.0 mi Variable 5.8 mph - N/A   Mostly Cloudy
12:22 PM 89.1 °F 99.1 °F 75.0 °F 63% 29.92 in 10.0 mi NNW 9.2 mph - N/A Thunderstorm Overcast
12:29 PM 89.1 °F 99.1 °F 75.0 °F 63% 29.92 in 10.0 mi NNW 6.9 mph - N/A Thunderstorm Thunderstorm
12:53 PM 87.1 °F 96.3 °F 75.0 °F 67% 29.93 in 10.0 mi East 17.3 mph 23.0 mph N/A Thunderstorm Thunderstorm
1:08 PM 82.0 °F 88.6 °F 75.0 °F 79% 29.92 in 10.0 mi SE 10.4 mph - 0.00 in Rain , Thunderstorm Light Thunderstorms and Rain
1:19 PM 81.0 °F 86.7 °F 75.0 °F 82% 29.92 in 1.5 mi SE 9.2 mph - 0.00 in Rain , Thunderstorm Light Thunderstorms and Rain
1:34 PM 80.1 °F 85.4 °F 75.9 °F 87% 29.91 in 10.0 mi SE 5.8 mph - 0.01 in Rain , Thunderstorm Light Rain
1:53 PM 80.1 °F 85.1 °F 75.0 °F 85% 29.92 in 10.0 mi SE 5.8 mph - 0.01 in Thunderstorm Mostly Cloudy
2:10 PM 82.0 °F 88.6 °F 75.0 °F 79% 29.91 in 10.0 mi SSE 4.6 mph - N/A   Partly Cloudy
2:53 PM 84.0 °F 91.9 °F 75.0 °F 74% 29.89 in 10.0 mi South 3.5 mph - N/A   Partly Cloudy
3:53 PM 88.0 °F 101.3 °F 78.1 °F 72% 29.87 in 10.0 mi South 6.9 mph - N/A   Clear
4:53 PM 88.0 °F 98.5 °F 75.9 °F 67% 29.87 in 10.0 mi ENE 6.9 mph - N/A   Mostly Cloudy
5:53 PM 87.1 °F 97.3 °F 75.9 °F 69% 29.87 in 10.0 mi East 6.9 mph - N/A   Mostly Cloudy
6:53 PM 86.0 °F 96.0 °F 75.9 °F 72% 29.88 in 10.0 mi East 6.9 mph - N/A   Partly Cloudy
7:53 PM 84.9 °F 93.3 °F 75.0 °F 72% 29.88 in 10.0 mi East 6.9 mph - N/A   Clear
8:29 PM 84.9 °F 93.3 °F 75.0 °F 72% 29.90 in 10.0 mi East 3.5 mph - N/A Thunderstorm Clear
8:53 PM 84.0 °F 92.6 °F 75.9 °F 76% 29.92 in 10.0 mi ESE 3.5 mph - 0.00 in Rain , Thunderstorm Light Rain
8:58 PM 82.9 °F 90.8 °F 75.9 °F 79% 29.93 in 2.5 mi East 9.2 mph - 0.21 in Rain Heavy Rain
9:01 PM 81.0 °F 86.7 °F 75.0 °F 82% 29.92 in 1.0 mi Variable 3.5 mph - 0.37 in Rain Heavy Rain
9:07 PM 81.0 °F 86.2 °F 73.9 °F 79% 29.92 in 1.2 mi SSW 6.9 mph - 0.39 in Rain , Thunderstorm Thunderstorms and Rain
9:11 PM 81.0 °F 86.7 °F 75.0 °F 82% 29.92 in 4.0 mi SSW 9.2 mph - 0.39 in Rain , Thunderstorm Light Thunderstorms and Rain
9:28 PM 81.0 °F 86.2 °F 73.9 °F 79% 29.92 in 10.0 mi WSW 5.8 mph - 0.39 in Thunderstorm Thunderstorm
9:53 PM 80.1 °F 85.4 °F 75.9 °F 87% 29.95 in 10.0 mi North - - 0.39 in Thunderstorm Thunderstorm
10:02 PM 80.1 °F 85.4 °F 75.9 °F 87% 29.96 in 2.0 mi SE 11.5 mph - 0.31 in Rain , Thunderstorm Heavy Rain
10:07 PM 79.0 °F - 75.0 °F 88% 29.97 in 1.0 mi ESE 6.9 mph - 0.63 in Rain , Thunderstorm Heavy Thunderstorms and Rain
10:11 PM 78.1 °F - 73.9 °F 87% 29.97 in 0.8 mi Variable 5.8 mph - 0.88 in Rain , Thunderstorm Heavy Thunderstorms and Rain
10:31 PM 75.9 °F - 73.9 °F 94% 29.95 in 1.0 mi Variable 6.9 mph 17.3 mph 1.75 in Rain , Thunderstorm Heavy Thunderstorms and Rain
10:39 PM 75.9 °F - 73.0 °F 91% 29.94 in 2.0 mi West 10.4 mph - 1.83 in Rain , Thunderstorm Heavy Thunderstorms and Rain
10:46 PM 75.9 °F - 73.0 °F 91% 29.95 in 7.0 mi WNW 6.9 mph - 1.83 in Rain , Thunderstorm Light Thunderstorms and Rain
10:53 PM 77.0 °F - 73.0 °F 88% 29.96 in 10.0 mi NW 5.8 mph - 1.83 in Thunderstorm Thunderstorm
11:32 PM 77.0 °F - 73.0 °F 88% 29.95 in 10.0 mi West 3.5 mph - 0.00 in Thunderstorm Scattered Clouds
11:42 PM 77.0 °F - 73.0 °F 88% 29.94 in 10.0 mi Calm Calm - 0.00 in   Partly Cloudy
11:53 PM 77.0 °F - 73.0 °F 88% 29.94 in 10.0 mi NNE 5.8 mph - 0.00 in   Clear